Location: ČR
(50.0000°N, 15.0000°E)
Time: 12:22:58
(UTC+00:00)

ISS - Pass Details

Date: 27 September 2021
Orbit: 417 x 423 km, 51.6° (Epoch: 16 October)

Event Time Altitude Azimuth Distance (km) Brightness Sun altitude
Rises 18:07:31 0° 280° (W) 2,364 2.1 -13.7°
Reaches altitude 10° 18:09:37 10° 283° (WNW) 1,501 0.5 -14.0°
Maximum altitude 18:12:59 68° 8° (N) 454 -3.6 -14.6°
Enters shadow 18:14:27 30° 84° (E) 775 -2.9 -14.8°
